Location: Unspecified
(0.0000°N, 0.0000°E)
Time: 16:41:20
(UTC+00:00)

Vanguard 2 Rocket - Pass Details

Date: 20 November 2019
Orbit: 554 x 3326 km, 32.9° (Epoch: 13 December)

Event Time Altitude Azimuth Distance (km) Brightness Sun altitude
Rises 06:07:21 0° 328° (NNW) 4,208 9.8 5.1°
Reaches altitude 10° 06:10:10 10° 339° (NNW) 3,565 9.6 5.8°
Maximum altitude 06:18:46 34° 40° (NE) 3,021 9.9 7.8°
Drops below altitude 10° 06:32:16 10° 98° (E) 5,651 13.2 11.0°
Sets 06:38:07 0° 106° (ESE) 6,998 13.5 12.4°
